Regional Weather Roundup
Issued by NWS Northern Indiana

Home | Current Version | Previous Version | Text Only | Print | Product List | Glossary Off
Versions: 1 2 3 4 5 6 7 8 9 10 11 12 13 14 15 16 17 18 19 20 21 22 23 24 25 26 27 28 29 30 31 32 33 34 35 36 37 38 39 40 41 42 43 44 45 46 47 48 49 50

000
ASUS43 KIWX 260400
RWRIWX

KIWX WEATHER ROUNDUP
NATIONAL WEATHER SERVICE NORTHERN INDIANA
1200 AM EDT MON SEP 26 2016

NOTE: "FAIR" INDICATES FEW OR NO CLOUDS BELOW 12,000 FEET WITH NO
SIGNIFICANT WEATHER AND/OR OBSTRUCTIONS TO VISIBILITY.

* THESE STATIONS ARE NOT UNDER NWS QUALITY CONTROL. THEY ALSO MAY NOT
  REPORT WEATHER SUCH AS PRECIPITATION OR FOG.

INZ001>027-260500-
NORTHERN INDIANA

CITY           SKY/WX    TMP DP  RH WIND       PRES   REMARKS
SOUTH BEND     MOCLDY    70  67  90 SW7       29.93S
GOSHEN         MOCLDY    70  64  81 SE9       29.93F
ANGOLA*          N/A     64  57  77 SE5       29.97F
FORT WAYNE     LGT RAIN  72  65  78 S8        29.97F
PERU/GRISSOM   MOCLDY    72  67  85 S6        29.94F

$$
INZ028>050-260500-
CENTRAL INDIANA

CITY           SKY/WX    TMP DP  RH WIND       PRES   REMARKS
LAFAYETTE      MOCLDY    69  68  96 W5        29.96S
MUNCIE*        CLOUDY    76  65  68 S10       30.00S
INDIANAPOLIS   MOCLDY    73  68  84 SW3       29.99F

$$
MIZ043>046-050>051-056>058-064>065-071>073-077>080-260500-
SOUTHWEST LOWER MICHIGAN

CITY           SKY/WX    TMP DP  RH WIND       PRES   REMARKS
BATTLE CREEK   PTCLDY    66  54  65 S14       29.93F
BENTON HARBOR  CLOUDY    73  67  81 S7        29.90F
COLDWATER*     CLOUDY    62  56  80 SE10      29.96F
HILLSDALE*     CLOUDY    61  54  77 SE5       29.98F
HOLLAND        CLOUDY    72  62  71 S9        29.89F
GRAND RAPIDS   CLOUDY    66  51  58 SE13      29.89F
KALAMAZOO      CLEAR     68  53  58 S7        29.93F
STURGIS*       PTCLDY    64  57  78 SE7       29.94F
THREE RIVERS*  FAIR      70  57  63 S6        29.94F

$$
OHZ001>008-015>018-024>025-260500-
NORTHWEST OHIO

CITY           SKY/WX    TMP DP  RH WIND       PRES   REMARKS
DEFIANCE       CLOUDY    67  54  63 SE3       29.97F
FINDLAY        CLEAR     68  52  56 SE8       29.99F
TOLEDO EXPRESS CLEAR     62  56  80 E6        29.98F
TOLEDO METCALF CLEAR     61  56  83 SE6       30.00F
LIMA           CLEAR     69  58  67 S9        30.01F

$$
AND FOR LAKE MICHIGAN COASTAL AND OPEN LAKE BUOY OBSERVATIONS

STATION/POSITION TEMP    WIND        PRES    VSBY  WAVE
                 AIR SEA DIR/SP/G                  HT/PER
                 (F)     (DEG/KT/KT) (MB)    (MI)  (FT/S)
CALUMET HARBOR    74     260/  9/ 18 1012.9S
MICHIGAN CITY     72     180/ 13/ 15   N/A
BURNS HARBOR      73     250/ 11/ 12 1013.9R
SAINT JOSEPH      72     300/  6/  8 1012.9
SOUTH LAKE BUOY   74 72  160/ 14/ 17 1010.6          2/ 3
4 MI NW BRIDGMAN  69 67  210/ 12/ 16 1012.5R         2/ 2
MICHIGAN CITY     71 68  230/ 10/ 14   N/A           2/ 2

$$
&&




USA.gov is the U.S. government's official web portal to all federal, state and local government web resources and services.